Location: The Saddle
(36.8333°N, 80.3417°W)
Time: 07:13:52
(UTC-05:00)

Vanguard 3 - Pass Details

Date: 14 February 2026
Orbit: 507 x 3205 km, 33.3° (Epoch: 5 March)

Event Time Altitude Azimuth Distance (km) Brightness Sun altitude
Rises 20:18:22 0° 268° (W) 3,480 11.6 -28.1°
Reaches altitude 10° 20:21:23 10° 263° (W) 2,234 10.3 -28.7°
Enters shadow 20:24:43 36° 241° (WSW) 969 7.9 -29.4°
